Regional Weather Roundup
Issued by NWS

Home | Current Version | Previous Version | Graphics & Text | Print | Product List | Glossary On
Versions: 1 2 3 4 5 6 7 8 9 10 11 12 13 14 15 16 17 18 19 20 21 22 23 24 25 26 27 28 29 30 31 32 33 34 35 36 37 38 39 40 41 42 43 44 45 46 47 48 49 50
000
ASUS43 KOAX 260210
RWRNE

WEATHER ROUNDUP FOR NEBRASKA
NATIONAL WEATHER SERVICE OMAHA NE
900 PM CDT WED MAY 25 2016

NOTES: SATELLITE DATA IS BEING USED TO AUGMENT CLOUD COVER ABOVE
       12000 FEET.
       "FAIR" INDICATES FEW OR NO CLOUDS BELOW 12,000 FEET WITH NO
       SIGNIFICANT WEATHER AND/OR OBSTRUCTIONS TO VISIBILITY.

  * THESE STATIONS DO NOT REPORT WEATHER SUCH AS RAIN...SNOW OR FOG.

NEZ001>004-019>022-054>056-260300-
NEBRASKA PANHANDLE

CITY           SKY/WX    TMP DP  RH WIND       PRES   REMARKS
SCOTTSBLUFF    CLOUDY    65  43  44 SE10      29.92R
ALLIANCE       CLOUDY    60  46  59 NE8       29.94R
CHADRON        CLEAR     55  45  68 SW6       29.90S
KIMBALL        CLOUDY    54  40  59 N5        29.96F
SIDNEY         CLEAR     56  44  64 NE5       29.96R
$$

NEZ057>060-069>072-079>082-260300-
SOUTHWEST NEBRASKA

CITY           SKY/WX    TMP DP  RH WIND       PRES   REMARKS
NORTH PLATTE   CLOUDY    61  52  72 SW3       29.91R
IMPERIAL       LGT RAIN  58  50  75 E10       29.92F
LEXINGTON      CLOUDY    68  54  61 NW35G47   29.95R
MCCOOK         CLOUDY    62  50  64 N17       29.88F
OGALLALA       CLOUDY    62  51  68 CALM      29.91S
$$

NEZ005>010-023>029-035>040-094-260300-
NORTH CENTRAL NEBRASKA

CITY           SKY/WX    TMP DP  RH WIND       PRES   REMARKS
VALENTINE      CLOUDY    63  44  50 NW10      29.85S
AINSWORTH      MOCLDY    66  46  49 NW8       29.87S
BROKEN BOW     CLOUDY    67  54  63 W6        29.88R
O`NEILL        PTCLDY    66  51  59 NW6       29.84R
ORD            CLOUDY    70  52  52 W7        29.83R
THEDFORD       CLOUDY    67  45  46 W7        29.89F
$$

NEZ041-046>049-061>064-073>077-083>087-260300-
SOUTH CENTRAL NEBRASKA

CITY           SKY/WX    TMP DP  RH WIND       PRES   REMARKS
GRAND ISLAND   CLEAR     70  65  84 SE5       29.84R
AURORA         MOCLDY    73  67  83 CALM      29.84R
HASTINGS       CLEAR     72  63  73 CALM      29.85R
HEBRON         CLOUDY    73  68  84 CALM      29.82S
HOLDREGE       CLEAR     69  62  78 CALM      29.87R
KEARNEY *      CLEAR     70  63  78 S5        29.87R
YORK           CLOUDY    72  66  83 MISG      29.83S
$$

NEZ011>018-030>034-042>045-260300-
NORTHEAST NEBRASKA

CITY           SKY/WX    TMP DP  RH WIND       PRES   REMARKS
NORFOLK        CLOUDY    71  60  68 S7        29.80R
ALBION         CLOUDY    71  60  66 S3        29.82S
BLAIR          PTCLDY    73  66  79 S5        29.82F
FREMONT        PTCLDY    72  65  80 S5        29.83S
TEKAMAH        MOCLDY    74  65  73 S9        29.80F
WAYNE          CLEAR     70  60  70 S8        29.80R
$$

NEZ050>053-065>068-078-088>093-260300-
SOUTHEAST NEBRASKA

CITY           SKY/WX    TMP DP  RH WIND       PRES   REMARKS
LINCOLN        PTCLDY    73  67  81 CALM      29.82S
OMAHA EPPLEY   MOCLDY    75  66  73 SE7       29.81F
BEATRICE       CLOUDY    74  69  83 SE5       29.82S
FALLS CITY     CLOUDY    75  68  78 SE3       29.82S
NEBRASKA CITY  CLOUDY    72  69  89 S6        29.84S
PLATTSMOUTH    PTCLDY    74  69  86 CALM      29.83S
$$

NEZ044-045-051>053-067-260300-
OMAHA AREA

CITY           SKY/WX    TMP DP  RH WIND       PRES   REMARKS
OMAHA EPPLEY   MOCLDY    75  66  73 SE7       29.81F
BLAIR          PTCLDY    73  66  79 S5        29.82F
FREMONT        PTCLDY    72  65  80 S5        29.83S
MILLARD        MOCLDY    73  67  81 SE3       29.82F
OFFUTT AFB     PTCLDY    70  69  98 E3        29.81F
PLATTSMOUTH    PTCLDY    74  69  86 CALM      29.83S
WAHOO          FAIR      72  67  83 S3        29.82F
$$




USA.gov is the U.S. government's official web portal to all federal, state and local government web resources and services.